Location: Augirein
(42.9320°N, 0.9181°E)
Time: 19:08:25
(UTC+00:00)

Cosmos 2058 - Pass Details

Date: 20 June 2021
Orbit: 563 x 582 km, 82.5° (Epoch: 31 July)

Event Time Altitude Azimuth Distance (km) Brightness Sun altitude
Exits shadow 02:00:25 21° 267° (W) 1,286 4.4 -17.9°
Maximum altitude 02:01:19 23° 287° (WNW) 1,227 4.4 -17.8°
Drops below altitude 10° 02:04:37 10° 340° (NNW) 1,865 6.1 -17.5°
Sets 02:07:10 0° 356° (N) 2,768 7.3 -17.3°
